EW4174 Weather Reports


Display with metric or nautical units.
time (UTC)temp
F
wind
direction
speed
MPH
gust
MPH
rain 1hr
in
rain 24hr
in
rain mn
in
humidity
%
barometer
mb
20260510044637 74 117 1.0 2.0 0.00 0.00 0.00 88 1009.1
20260510043054 74 117 1.0 2.0 0.00 0.00 0.00 88 1009.1
20260510041547 74 117 1.0 2.0 0.00 0.00 0.00 88 1009.0
20260510040040 74 117 2.0 3.0 0.00 0.00 0.00 87 1008.9
20260510034536 74 117 2.0 3.0 0.00 0.00 0.00 87 1008.7
20260510033034 75 117 2.0 3.0 0.00 0.00 0.00 85 1008.6
20260510031537 76 117 2.0 4.0 0.00 0.00 0.00 84 1008.5
20260510030038 76 117 4.0 9.0 0.00 0.00 0.00 83 1008.3
20260510024537 78 123 2.0 4.0 0.00 0.00 0.00 80 1007.8
20260510023032 79 123 1.0 3.0 0.00 0.00 0.00 78 1007.7
20260510021533 80 123 1.0 4.0 0.00 0.00 0.00 77 1007.5
20260510020030 81 123 1.0 2.0 0.00 0.00 0.00 76 1007.1
20260510014527 81 123 0.0 0.0 0.00 0.00 0.00 76 1006.8
20260510013024 81 123 0.0 3.0 0.00 0.00 0.00 76 1006.7
20260510011516 81 123 2.0 3.0 0.00 0.00 0.00 77 1006.8
20260510010015 82 123 2.0 4.0 0.00 0.00 0.00 75 1006.7
20260510004507 83 123 2.0 6.0 0.00 0.00 0.00 73 1006.8
20260510003013 85 215 2.0 4.0 0.00 0.00 0.00 74 1006.8
20260510001605 85 215 1.0 3.0 0.00 0.00 0.00 72 1006.6
20260510000056 86 215 1.0 4.0 0.00 0.00 0.00 67 1006.3
20260509234604 87 216 2.0 6.0 0.00 0.00 0.00 64 1006.4
20260509233045 90 227 1.0 2.0 0.00 0.00 0.00 60 1006.2
20260509231541 91 227 1.0 3.0 0.00 0.00 0.00 56 1006.1
20260509230037 92 227 0.0 4.0 0.00 0.00 0.00 54 1006.1
20260509224538 90 227 2.0 5.0 0.00 0.00 0.00 58 1006.0
20260509223027 91 232 2.0 5.0 0.00 0.00 0.00 55 1006.1
20260509221526 91 261 3.0 6.0 0.00 0.00 0.00 55 1005.9
20260509220020 90 286 1.0 8.0 0.00 0.00 0.00 59 1005.8
20260509214514 89 305 3.0 9.0 0.00 0.00 0.00 59 1006.0
20260509213010 89 342 3.0 10.0 0.00 0.00 0.00 60 1006.5
20260509211504 89 355 4.0 9.0 0.00 0.00 0.00 60 1006.7
20260509210101 89 20 5.0 12.0 0.00 0.00 0.00 63 1006.8
20260509204601 88 294 5.0 11.0 0.00 0.00 0.00 61 1007.0
20260509203115 88 257 3.0 9.0 0.00 0.00 0.00 63 1007.1
20260509201549 88 286 5.0 9.0 0.00 0.00 0.00 66 1007.1
20260509200053 88 273 5.0 12.0 0.00 0.00 0.00 63 1007.2
20260509194540 88 306 6.0 10.0 0.00 0.00 0.00 65 1007.5
20260509193034 87 282 5.0 10.0 0.00 0.00 0.00 64 1007.9
20260509191532 87 295 3.0 10.0 0.00 0.00 0.00 67 1007.9
20260509190023 86 306 6.0 11.0 0.00 0.00 0.00 68 1008.1
20260509184526 85 302 2.0 8.0 0.00 0.00 0.00 72 1008.3
20260509183140 85 271 3.0 7.0 0.00 0.00 0.00 72 1008.5
20260509181510 84 307 6.0 9.0 0.00 0.00 0.00 76 1008.8
20260509180005 83 304 3.0 5.0 0.00 0.00 0.00 77 1009.1
20260509174502 82 308 3.0 7.0 0.00 0.00 0.00 79 1009.1
20260509173104 81 307 4.0 8.0 0.00 0.00 0.00 80 1009.3
20260509171553 81 286 3.0 8.0 0.00 0.00 0.00 81 1009.4
20260509170054 79 292 5.0 8.0 0.00 0.00 0.00 86 1009.5
20260509164557 77 262 3.0 7.0 0.00 0.00 0.00 90 1009.4
20260509163041 74 279 2.0 9.0 0.00 0.00 0.00 94 1009.5
20260509161538 74 284 2.0 5.0 0.00 0.00 0.00 95 1009.5
20260509160038 74 288 3.0 7.0 0.00 0.00 0.00 95 1009.4
20260509154536 74 290 3.0 5.0 0.00 0.00 0.00 95 1009.6
20260509153037 74 278 6.0 13.0 0.00 0.00 0.00 95 1009.5
20260509151535 74 233 2.0 5.0 0.00 0.00 0.00 95 1009.2
20260509150039 74 215 2.0 4.0 0.00 0.00 0.00 95 1009.1
20260509144539 74 215 1.0 4.0 0.00 0.00 0.00 95 1009.1
20260509143032 74 129 1.0 4.0 0.00 0.00 0.00 95 1009.5
20260509141527 74 129 1.0 3.0 0.00 0.00 0.00 95 1009.7
20260509140023 74 129 0.0 1.0 0.00 0.00 0.00 95 1009.1
20260509134519 74 128 2.0 7.0 0.00 0.00 0.00 95 1008.7
20260509133016 74 161 8.0 11.0 0.00 0.00 0.00 95 1008.1
20260509131511 73 38 2.0 5.0 0.00 0.00 0.00 95 1009.1
20260509130010 73 38 2.0 5.0 0.00 0.00 0.00 95 1010.0
20260509124509 73 52 0.0 3.0 0.00 0.00 0.00 95 1009.8
20260509123008 73 52 1.0 4.0 0.00 0.00 0.00 95 1009.7
20260509121507 73 52 2.0 4.0 0.00 0.00 0.00 95 1009.8
20260509120006 73 52 2.0 5.0 0.00 0.00 0.00 95 1009.8
20260509114505 73 54 2.0 3.0 0.00 0.00 0.00 95 1009.3
20260509113114 73 54 0.0 2.0 0.00 0.00 0.00 95 1008.6
20260509111601 73 53 1.0 3.0 0.00 0.00 0.00 95 1008.4
20260509110051 73 53 1.0 5.0 0.00 0.00 0.00 95 1008.4
20260509104547 73 42 2.0 5.0 0.00 0.00 0.00 95 1008.3
20260509103143 73 34 2.0 4.0 0.00 0.00 0.00 95 1009.0
20260509101540 73 34 2.0 4.0 0.00 0.00 0.00 95 1009.0
20260509100035 73 34 1.0 9.0 0.00 0.00 0.00 94 1008.6
20260509094529 73 321 9.0 13.0 0.00 0.00 0.00 94 1008.6
20260509093025 73 108 7.0 10.0 0.00 0.00 0.00 95 1007.0
20260509091521 73 134 5.0 8.0 0.00 0.00 0.00 94 1007.1
20260509090018 73 145 2.0 5.0 0.00 0.00 0.00 94 1008.0
20260509084616 73 145 2.0 5.0 0.00 0.00 0.00 94 1008.0
20260509083022 73 143 3.0 8.0 0.00 0.00 0.00 94 1008.1
20260509081515 73 140 2.0 4.0 0.00 0.00 0.00 94 1008.5
20260509080012 73 140 2.0 4.0 0.00 0.00 0.00 94 1008.3
20260509074512 73 140 2.0 5.0 0.00 0.00 0.00 94 1008.2
20260509073011 73 140 2.0 5.0 0.00 0.00 0.00 94 1008.3
20260509071510 73 140 1.0 4.0 0.00 0.00 0.00 94 1008.6
20260509070011 73 140 2.0 3.0 0.00 0.00 0.00 94 1008.5
20260509064509 73 140 3.0 5.0 0.00 0.00 0.00 94 1008.3
20260509063006 73 139 2.0 9.0 0.00 0.00 0.00 94 1008.7
20260509061501 73 136 6.0 9.0 0.00 0.00 0.00 94 1008.6
20260509060131 73 132 4.0 8.0 0.00 0.00 0.00 94 1008.9
20260509054559 73 132 3.0 7.0 0.00 0.00 0.00 93 1009.1
20260509053049 73 132 3.0 8.0 0.00 0.00 0.00 94 1009.5
20260509051544 73 130 4.0 8.0 0.00 0.00 0.00 93 1009.5
20260509050056 73 130 2.0 7.0 0.00 0.00 0.00 93 1009.3